Moultrie, GA

12:54 PM EDT on October 20, 2019 (GMT -0400)
Moultrie Municipal

Weather History for KMGR - September, 2019

Change the Weather History Date:

Tuesday, September 17, 2019

  Actual Average (KMUL) Record (KMUL)
Temperature  
Mean Temperature 81 °F -  
Max Temperature 96 °F 88 °F 98 °F (1927)
Min Temperature 66 °F 66 °F 54 °F (1961)
Cooling Degree Days 16    
Growing Degree Days 31 (Base 50)    
Moisture  
Dew Point 63 °F    
Average Humidity 58    
Maximum Humidity 94    
Minimum Humidity 25    
Precipitation  
Precipitation 0.00 in - - ()
Sea Level Pressure  
Sea Level Pressure 29.97 in    
Wind  
Wind Speed 1 mph ()    
Max Wind Speed 8 mph    
Max Gust Speed -    
Visibility 10.0 miles    
Events      
Averages and records for this station are not official NWS values.
T = Trace of Precipitation, MM = Missing Value Source: Averaged Metar Reports

Daily Weather History Graph

Daily Weather History Graph

Search for Another Location

Airport or City:

Astronomy

Sep. 17, 2019 Rise Set
Actual Time 7:20 AM EDT 7:38 PM EDT
Civil Twilight 6:56 AM EDT 8:02 PM EDT
Nautical Twilight 6:27 AM EDT 8:30 PM EDT
Astronomical Twilight 5:59 AM EDT 8:59 PM EDT
Moon 9:53 PM EDT (9/17) 10:13 AM EDT (9/17)
Length of Visible Light 13h 06m
Length of Day
12h 18m
Waning Gibbous, 89% of the Moon is Illuminated
Sep 17
Waning Gibbous
Sep 21
Last Quarter
Sep 28
New
Oct 5
First Quarter
Oct 13
Full

Hourly Weather History & Observations

Time (EDT) Temp. Heat Index Dew Point Humidity Pressure Visibility Wind Dir Wind Speed Gust Speed Precip Events Conditions
12:15 AM 71.6 °F - 66.2 °F 83% 29.98 in 10.0 mi Calm Calm - N/A   Clear
12:35 AM 71.6 °F - 66.2 °F 83% 29.98 in 10.0 mi Calm Calm - N/A   Clear
12:55 AM 71.6 °F - 64.4 °F 78% 29.97 in 10.0 mi Calm Calm - N/A   Clear
1:15 AM 71.6 °F - 64.4 °F 78% 29.98 in 10.0 mi Calm Calm - N/A   Clear
1:35 AM 71.6 °F - 64.4 °F 78% 29.97 in 10.0 mi Calm Calm - N/A   Clear
1:55 AM 71.6 °F - 64.4 °F 78% 29.97 in 10.0 mi Calm Calm - N/A   Clear
2:15 AM 69.8 °F - 64.4 °F 83% 29.97 in 10.0 mi Calm Calm - N/A   Clear
2:35 AM 68.0 °F - 64.4 °F 88% 29.97 in 10.0 mi Calm Calm - N/A   Clear
2:55 AM 68.0 °F - 64.4 °F 88% 29.97 in 10.0 mi Calm Calm - N/A   Clear
3:15 AM 69.8 °F - 66.2 °F 88% 29.96 in 10.0 mi Calm Calm - N/A   Clear
3:35 AM 68.0 °F - 64.4 °F 88% 29.95 in 10.0 mi Calm Calm - N/A   Clear
3:55 AM 68.0 °F - 64.4 °F 88% 29.95 in 10.0 mi Calm Calm - N/A   Clear
4:15 AM 68.0 °F - 66.2 °F 94% 29.95 in 10.0 mi Calm Calm - N/A   Clear
4:35 AM 71.6 °F - 64.4 °F 78% 29.95 in 10.0 mi Calm Calm - N/A   Clear
4:55 AM 68.0 °F - 64.4 °F 88% 29.95 in 10.0 mi Calm Calm - N/A   Clear
5:15 AM 68.0 °F - 64.4 °F 88% 29.96 in 10.0 mi WSW 4.6 mph - N/A   Clear
5:35 AM 68.0 °F - 64.4 °F 88% 29.96 in 10.0 mi Calm Calm - N/A   Clear
5:55 AM 68.0 °F - 64.4 °F 88% 29.97 in 10.0 mi Calm Calm - N/A   Clear
6:15 AM 68.0 °F - 64.4 °F 88% 29.97 in 10.0 mi Calm Calm - N/A   Clear
6:35 AM 68.0 °F - 64.4 °F 88% 29.97 in 10.0 mi Calm Calm - N/A   Clear
6:55 AM 66.2 °F - 64.4 °F 94% 29.98 in 10.0 mi Calm Calm - N/A   Clear
7:15 AM 68.0 °F - 64.4 °F 88% 29.99 in 10.0 mi Calm Calm - N/A   Clear
7:35 AM 66.2 °F - 64.4 °F 94% 30.00 in 10.0 mi Calm Calm - N/A   Clear
7:55 AM 68.0 °F - 64.4 °F 88% 30.00 in 10.0 mi Calm Calm - N/A   Clear
8:15 AM 68.0 °F - 64.4 °F 88% 30.00 in 10.0 mi Calm Calm - N/A   Clear
8:35 AM - - - N/A% - - North - - N/A   Unknown
8:55 AM - - - N/A% - - North - - N/A   Unknown
9:15 AM - - - N/A% - - North - - N/A   Unknown
9:35 AM - - - N/A% - - North - - N/A   Unknown
9:55 AM 82.4 °F 83.9 °F 64.4 °F 54% 30.02 in - North 3.5 mph - N/A   Clear
10:15 AM 82.4 °F 83.9 °F 64.4 °F 54% 30.02 in 10.0 mi Calm Calm - N/A   Clear
10:35 AM 86.0 °F 87.3 °F 64.4 °F 48% 30.03 in 10.0 mi Calm Calm - N/A   Clear
10:55 AM 87.8 °F 89.4 °F 64.4 °F 46% 30.03 in 10.0 mi Calm Calm - N/A   Clear
11:15 AM 87.8 °F 89.4 °F 64.4 °F 46% 30.03 in 10.0 mi NW 3.5 mph - N/A   Clear
11:35 AM 89.6 °F 90.1 °F 62.6 °F 40% 30.02 in 10.0 mi Calm Calm - N/A   Clear
11:55 AM 91.4 °F 92.1 °F 62.6 °F 38% 30.02 in 10.0 mi North 4.6 mph - N/A   Clear
12:15 PM 91.4 °F 92.1 °F 62.6 °F 38% 30.01 in 10.0 mi North 4.6 mph - N/A   Clear
12:35 PM 91.4 °F 91.4 °F 60.8 °F 36% 30.01 in 10.0 mi NNE 4.6 mph - N/A   Clear
12:55 PM 93.2 °F 92.6 °F 59.0 °F 32% 30.00 in 10.0 mi North 5.8 mph - N/A   Clear
1:15 PM 93.2 °F 92.6 °F 59.0 °F 32% 30.00 in 10.0 mi NNW 4.6 mph - N/A   Clear
1:35 PM 95.0 °F 94.4 °F 59.0 °F 30% 29.99 in 10.0 mi NNE 5.8 mph - N/A   Clear
1:55 PM 95.0 °F 94.4 °F 59.0 °F 30% 29.98 in 10.0 mi Calm Calm - N/A   Clear
2:15 PM 95.0 °F 94.4 °F 59.0 °F 30% 29.98 in 10.0 mi Calm Calm - N/A   Clear
2:35 PM 95.0 °F 94.4 °F 59.0 °F 30% 29.97 in 10.0 mi Calm Calm - N/A   Clear
2:55 PM 96.8 °F 96.2 °F 59.0 °F 28% 29.96 in 10.0 mi NNW 6.9 mph - N/A   Clear
3:15 PM 96.8 °F 95.8 °F 57.2 °F 27% 29.96 in 10.0 mi West 8.1 mph - N/A   Clear
3:35 PM 96.8 °F 95.1 °F 55.4 °F 25% 29.95 in 10.0 mi Calm Calm - N/A   Clear
3:55 PM 96.8 °F 95.8 °F 57.2 °F 27% 29.94 in 10.0 mi West 4.6 mph - N/A   Clear
4:15 PM 96.8 °F 95.1 °F 55.4 °F 25% 29.93 in 10.0 mi NW 3.5 mph - N/A   Clear
4:35 PM 96.8 °F 95.1 °F 55.4 °F 25% 29.93 in 10.0 mi Calm Calm - N/A   Clear
4:55 PM 96.8 °F 95.1 °F 55.4 °F 25% 29.93 in 10.0 mi NW 3.5 mph - N/A   Clear
5:15 PM 96.8 °F 95.1 °F 55.4 °F 25% 29.92 in 10.0 mi NW 3.5 mph - N/A   Clear
5:35 PM 96.8 °F 95.8 °F 57.2 °F 27% 29.92 in 10.0 mi NNW 3.5 mph - N/A   Clear
5:55 PM 96.8 °F 96.2 °F 59.0 °F 28% 29.92 in 10.0 mi West 5.8 mph - N/A   Clear
6:15 PM 95.0 °F 94.4 °F 59.0 °F 30% 29.92 in 10.0 mi West 4.6 mph - N/A   Clear
6:35 PM 95.0 °F 94.4 °F 59.0 °F 30% 29.92 in 10.0 mi Calm Calm - N/A   Clear
6:55 PM 95.0 °F 95.2 °F 60.8 °F 32% 29.92 in 10.0 mi Calm Calm - N/A   Clear
7:15 PM 91.4 °F 93.2 °F 64.4 °F 41% 29.92 in 10.0 mi Calm Calm - N/A   Clear
7:35 PM 87.8 °F 90.4 °F 66.2 °F 49% 29.92 in 10.0 mi Calm Calm - N/A   Clear
7:55 PM 86.0 °F 88.2 °F 66.2 °F 51% 29.92 in 10.0 mi Calm Calm - N/A   Clear
8:15 PM 82.4 °F 85.4 °F 68.0 °F 62% 29.92 in 10.0 mi Calm Calm - N/A   Clear
8:35 PM 82.4 °F 84.6 °F 66.2 °F 58% 29.93 in 10.0 mi Calm Calm - N/A   Clear
8:55 PM 80.6 °F 83.9 °F 69.8 °F 70% 29.94 in 10.0 mi Calm Calm - N/A   Clear
9:15 PM 80.6 °F 83.2 °F 68.0 °F 65% 29.94 in 10.0 mi Calm Calm - N/A   Clear
9:35 PM 78.8 °F - 68.0 °F 69% 29.95 in 10.0 mi Calm Calm - N/A   Clear
9:55 PM 80.6 °F 82.3 °F 64.4 °F 58% 29.95 in 10.0 mi Calm Calm - N/A   Clear
10:15 PM 82.4 °F 83.9 °F 64.4 °F 54% 29.96 in 10.0 mi Calm Calm - N/A   Clear
10:35 PM 80.6 °F 82.3 °F 64.4 °F 58% 29.96 in 10.0 mi Calm Calm - N/A   Clear
10:55 PM 80.6 °F 82.3 °F 64.4 °F 58% 29.96 in 10.0 mi Calm Calm - N/A   Clear
11:15 PM 80.6 °F 82.3 °F 64.4 °F 58% 29.96 in 10.0 mi Calm Calm - N/A   Clear
11:35 PM 78.8 °F - 66.2 °F 65% 29.96 in 10.0 mi Calm Calm - N/A   Clear
11:55 PM 80.6 °F 83.2 °F 68.0 °F 65% 29.96 in 10.0 mi Calm Calm - N/A   Clear